Temp
-4 -3 -3 -3 -3 -3 -2 -2 -3 -2 -1 -1 -1 -2 -4 -5 -4 -4 -4 -4 -4 -5 -5 -6 -6 -6 -7 -7 -7 -8 -8 -8 -8 -8 -8 -7 -6 -6 -6 -7 -6 -6 -6 -6
-5 -4 -4 -3 -3 -3 -3 -3 -2 -2 -2 -1 -2 -3 -4 -5 -5 -5 -5 -4 -4 -5 -6 -6 -7 -7 -7 -8 -8 -8 -9 -9 -9 -8 -8 -7 -7 -7 -7 -7 -7 -7 -7 -6
-5 -4 -5 -4 -3 -3 -2 -2 -2 -3 -2 -2 -3 -4 -4 -5 -5 -5 -5 -5 -5 -6 -7 -7 -7 -8 -8 -9 -9 -9 -9 -9 -10 -8 -8 -8 -8 -8 -8 -8 -8 -7 -7 -7
-6 -5 -5 -2 -3 -3 -3 -3 -3 -3 -3 -4 -3 -4 -5 -5 -6 -6 -6 -6 -7 -7 -7 -7 -8 -8 -9 -9 -10 -10 -10 -10 -9 -9 -9 -8 -8 -8 -8 -8 -8 -7 -7 -7
-6 -5 -4 -3 -4 -4 -4 -3 -3 -3 -3 -3 -4 -5 -5 -5 -5 -6 -6 -6 -7 -8 -8 -8 -8 -9 -10 -10 -10 -11 -11 -10 -9 -9 -9 -9 -9 -9 -8 -8 -8 -8 -7 -7
-6 -5 -4 -4 -3 -4 -3 -4 -3 -3 -3 -4 -5 -6 -6 -6 -6 -6 -7 -7 -8 -9 -9 -9 -9 -10 -10 -11 -11 -11 -11 -10 -9 -9 -9 -9 -9 -9 -8 -8 -8 -8 -8 -8
-6 -6 -5 -4 -4 -4 -5 -3 -4 -4 -4 -5 -6 -6 -6 -6 -7 -7 -8 -8 -9 -9 -9 -9 -10 -10 -11 -11 -12 -12 -12 -10 -10 -9 -9 -9 -9 -9 -9 -9 -8 -8 -8 -8
-6 -6 -5 -4 -5 -5 -5 -6 -5 -5 -6 -6 -6 -6 -6 -7 -8 -8 -9 -9 -9 -10 -10 -10 -11 -11 -12 -13 -12 -12 -11 -10 -10 -9 -10 -10 -10 -10 -10 -9 -9 -9 -9 -8
-6 -5 -5 -5 -5 -6 -6 -6 -6 -6 -6 -6 -7 -7 -7 -8 -9 -10 -10 -10 -10 -10 -11 -11 -11 -12 -12 -12 -12 -11 -10 -10 -10 -10 -10 -10 -10 -10 -9 -9 -9 -9 -9 -8
-7 -6 -6 -6 -6 -6 -7 -7 -6 -6 -7 -7 -7 -7 -8 -8 -9 -10 -10 -10 -11 -11 -11 -11 -12 -12 -12 -12 -11 -11 -10 -10 -10 -10 -11 -10 -10 -10 -9 -9 -9 -9 -9 -8
-7 -7 -7 -6 -7 -7 -6 -7 -7 -7 -7 -7 -8 -8 -8 -9 -10 -10 -11 -11 -11 -11 -11 -12 -12 -12 -12 -12 -11 -11 -11 -11 -11 -11 -11 -10 -10 -10 -10 -10 -9 -9 -9 -9
-8 -8 -7 -7 -7 -6 -6 -7 -7 -7 -7 -8 -8 -8 -9 -9 -10 -11 -11 -11 -11 -11 -12 -12 -12 -12 -12 -12 -11 -11 -11 -11 -11 -11 -11 -10 -10 -10 -10 -10 -10 -10 -10 -10
-7 -7 -8 -7 -7 -6 -7 -7 -7 -7 -8 -8 -9 -9 -9 -10 -10 -10 -11 -11 -12 -12 -12 -12 -12 -12 -12 -12 -11 -11 -11 -12 -12 -11 -11 -11 -11 -11 -11 -11 -11 -11 -11 -11
-7 -7 -7 -7 -7 -7 -7 -7 -7 -8 -8 -9 -9 -10 -10 -10 -11 -11 -11 -11 -12 -12 -13 -12 -12 -12 -12 -12 -12 -12 -12 -12 -12 -12 -12 -12 -12 -12 -12 -12 -12 -12 -12 -12
-7 -7 -8 -7 -7 -7 -7 -8 -8 -8 -9 -9 -10 -10 -10 -11 -11 -11 -11 -12 -12 -13 -13 -13 -13 -12 -12 -12 -12 -12 -12 -12 -12 -12 -12 -12 -13 -13 -13 -13 -13 -13 -13 -13
-7 -8 -8 -8 -8 -8 -8 -8 -8 -8 -9 -9 -10 -10 -10 -11 -11 -11 -12 -12 -13 -13 -13 -13 -13 -13 -13 -13 -13 -13 -13 -13 -13 -13 -13 -13 -13 -13 -13 -13 -13 -14 -14 -14
-7 -8 -8 -8 -8 -8 -9 -9 -9 -9 -9 -10 -10 -10 -11 -11 -11 -12 -12 -12 -13 -14 -13 -13 -13 -13 -13 -13 -13 -13 -13 -13 -13 -13 -14 -14 -14 -14 -14 -14 -14 -15 -15 -15
-7 -8 -8 -8 -9 -9 -9 -9 -9 -9 -10 -10 -10 -11 -11 -12 -12 -12 -12 -13 -13 -14 -15 -15 -14 -14 -14 -14 -13 -14 -14 -14 -14 -14 -14 -14 -14 -15 -15 -15 -15 -16 -16 -16
-8 -8 -8 -8 -9 -9 -9 -10 -10 -10 -10 -11 -11 -11 -11 -12 -12 -12 -13 -13 -13 -13 -15 -15 -16 -15 -15 -15 -14 -14 -14 -14 -15 -15 -15 -15 -15 -15 -16 -16 -16 -16 -17 -17
-8 -8 -9 -9 -9 -10 -10 -10 -10 -10 -11 -11 -11 -11 -12 -12 -12 -13 -13 -13 -13 -13 -14 -15 -15 -16 -16 -16 -15 -15 -15 -15 -15 -15 -15 -16 -16 -16 -17 -17 -17 -17 -18 -18
-9 -9 -9 -9 -10 -10 -10 -11 -11 -11 -11 -11 -11 -12 -12 -12 -13 -13 -13 -13 -13 -14 -14 -14 -15 -15 -16 -15 -15 -15 -15 -16 -16 -16 -16 -16 -17 -17 -17 -17 -18 -18 -19 -20
-9 -10 -10 -10 -10 -11 -11 -11 -11 -11 -11 -12 -12 -12 -12 -13 -13 -13 -13 -13 -13 -14 -14 -15 -15 -16 -16 -16 -16 -16 -16 -16 -16 -17 -17 -17 -18 -18 -18 -18 -19 -19 -20 -21
-10 -10 -10 -11 -11 -11 -11 -11 -11 -12 -12 -12 -12 -13 -13 -13 -13 -14 -14 -14 -14 -14 -15 -15 -16 -16 -16 -16 -16 -16 -17 -17 -17 -17 -18 -18 -18 -19 -19 -19 -20 -20 -21 -21
-10 -10 -10 -11 -11 -11 -12 -12 -12 -12 -12 -12 -13 -13 -13 -14 -14 -14 -14 -14 -14 -15 -15 -16 -16 -16 -16 -17 -17 -17 -17 -17 -18 -18 -18 -19 -19 -19 -20 -20 -21 -21 -22 -22
-10 -10 -11 -11 -11 -12 -12 -12 -12 -12 -12 -13 -13 -13 -13 -14 -14 -14 -14 -15 -15 -15 -16 -16 -16 -16 -17 -17 -17 -18 -18 -18 -18 -19 -19 -19 -20 -20 -20 -21 -22 -22 -22 -22
-10 -10 -11 -11 -11 -12 -12 -12 -12 -12 -13 -13 -13 -13 -14 -14 -14 -14 -15 -15 -15 -15 -16 -16 -17 -17 -17 -18 -18 -18 -18 -19 -19 -19 -19 -20 -20 -21 -21 -22 -22 -22 -22 -23
-10 -10 -11 -11 -11 -12 -12 -12 -12 -12 -13 -13 -13 -14 -14 -14 -14 -15 -15 -15 -15 -16 -16 -17 -17 -17 -18 -18 -18 -19 -19 -19 -19 -20 -20 -21 -21 -21 -22 -22 -23 -23 -23 -23
Height
3055 3055 3055 3052 3051 3050 3049 3045 3045 3034 3039 3034 3039 3036 3034 3032 3031 3031 3030 3029 3028 3028 3028 3027 3026 3025 3023 3021 3019 3015 3013 3010 3008 3005 3001 2998 2994 2989 2984 2979 2974 2969 2964 2959
3047 3049 3048 3045 3041 3038 3038 3035 3035 3032 3027 3032 3029 3027 3026 3025 3023 3023 3023 3022 3021 3021 3021 3021 3020 3019 3017 3015 3013 3011 3009 3007 3005 3003 3000 2996 2993 2989 2984 2979 2974 2970 2965 2959
3038 3043 3041 3038 3024 3028 3026 3026 3026 3023 3019 3023 3019 3017 3017 3016 3015 3015 3015 3015 3015 3015 3015 3014 3014 3013 3011 3009 3008 3007 3006 3005 3004 3001 2998 2995 2992 2988 2984 2979 2975 2971 2967 2962
3035 3036 3029 3018 3019 3017 3017 3016 3016 3015 3014 3011 3011 3009 3009 3009 3008 3008 3009 3009 3009 3009 3009 3009 3008 3006 3005 3004 3004 3003 3003 3003 3002 3000 2997 2994 2991 2988 2984 2980 2976 2972 2968 2963
3030 3025 3019 3012 3014 3011 3011 3006 3007 3006 3006 3003 3003 3003 3003 3003 3002 3003 3003 3003 3004 3004 3003 3003 3003 3002 3001 3000 3000 3001 3001 3001 3000 2999 2997 2994 2990 2988 2984 2980 2976 2973 2969 2965
3021 3018 3012 3001 3005 3004 3004 2997 2998 2998 2997 2996 2996 2996 2997 2997 2997 2997 2998 2998 2998 2998 2998 2998 2998 2997 2997 2997 2998 2999 2999 2999 2999 2998 2995 2993 2990 2986 2982 2980 2976 2972 2970 2966
3010 3009 3000 3001 2998 2999 3000 2998 2993 2993 2991 2990 2991 2991 2992 2992 2992 2992 2992 2992 2992 2993 2993 2993 2993 2993 2993 2994 2996 2997 2998 2998 2997 2996 2994 2991 2988 2985 2982 2979 2975 2972 2970 2966
3001 2999 2993 2991 2992 2992 2990 2987 2990 2988 2987 2987 2987 2987 2987 2986 2985 2985 2986 2986 2987 2988 2988 2988 2989 2989 2991 2992 2994 2996 2997 2997 2995 2994 2993 2990 2987 2985 2983 2980 2977 2973 2970 2966
2994 2989 2986 2985 2984 2984 2983 2984 2985 2984 2984 2983 2983 2982 2980 2979 2979 2979 2980 2981 2982 2983 2984 2985 2986 2987 2989 2992 2994 2996 2996 2995 2994 2994 2992 2989 2987 2985 2983 2980 2977 2974 2971 2967
2984 2977 2978 2977 2976 2979 2979 2979 2980 2980 2979 2978 2977 2976 2974 2972 2972 2973 2975 2977 2979 2980 2981 2982 2984 2987 2989 2992 2993 2994 2994 2994 2994 2993 2991 2988 2986 2984 2982 2979 2976 2973 2969 2965
2972 2970 2971 2970 2971 2973 2974 2975 2975 2975 2974 2973 2971 2970 2968 2968 2968 2970 2973 2975 2976 2977 2978 2981 2984 2986 2988 2991 2992 2993 2993 2993 2992 2991 2989 2987 2985 2983 2980 2977 2973 2969 2965 2961
2966 2965 2965 2966 2968 2969 2969 2970 2969 2969 2968 2967 2966 2965 2965 2966 2967 2968 2970 2972 2974 2975 2977 2980 2984 2986 2988 2990 2991 2991 2991 2991 2990 2988 2986 2985 2982 2979 2976 2973 2969 2966 2962 2958
2961 2962 2962 2963 2964 2964 2964 2965 2964 2964 2963 2963 2962 2962 2963 2964 2965 2966 2968 2969 2971 2973 2976 2980 2983 2985 2986 2988 2989 2990 2990 2989 2988 2986 2984 2983 2980 2977 2974 2971 2968 2964 2960 2956
2958 2957 2958 2959 2960 2960 2960 2961 2960 2960 2960 2959 2959 2960 2962 2963 2964 2965 2966 2968 2970 2972 2975 2979 2981 2983 2985 2986 2987 2987 2987 2986 2985 2983 2982 2980 2977 2974 2970 2967 2963 2959 2956 2952
2952 2952 2953 2954 2956 2956 2957 2957 2957 2956 2956 2956 2957 2959 2960 2961 2962 2963 2965 2967 2969 2972 2974 2977 2979 2982 2983 2984 2984 2985 2984 2983 2982 2980 2979 2977 2974 2970 2967 2964 2960 2956 2951 2947
2947 2947 2948 2950 2951 2952 2953 2953 2953 2953 2954 2954 2956 2957 2958 2959 2960 2962 2964 2966 2968 2971 2973 2976 2978 2979 2981 2981 2982 2981 2981 2980 2979 2977 2975 2972 2969 2966 2964 2960 2957 2953 2948 2945
2942 2943 2944 2946 2948 2949 2950 2950 2950 2951 2952 2953 2955 2956 2957 2958 2959 2960 2962 2964 2966 2968 2971 2973 2975 2977 2978 2978 2978 2978 2977 2976 2974 2972 2970 2968 2965 2963 2959 2956 2952 2948 2944 2940
2939 2940 2941 2942 2944 2945 2946 2947 2948 2949 2950 2952 2953 2955 2955 2956 2957 2959 2961 2962 2964 2965 2968 2970 2973 2974 2975 2975 2975 2974 2973 2972 2971 2969 2966 2963 2960 2957 2954 2950 2947 2942 2938 2933
2937 2938 2939 2940 2941 2942 2943 2945 2947 2948 2949 2950 2952 2953 2954 2955 2956 2957 2959 2961 2961 2963 2965 2967 2969 2971 2971 2972 2971 2970 2969 2968 2966 2964 2961 2958 2956 2953 2949 2946 2942 2937 2933 2928
2936 2937 2938 2939 2940 2941 2942 2944 2945 2946 2948 2949 2950 2951 2952 2953 2954 2956 2957 2958 2959 2960 2961 2963 2965 2966 2967 2967 2967 2966 2965 2963 2961 2959 2956 2953 2950 2947 2944 2941 2937 2933 2929 2925
2934 2935 2937 2938 2939 2940 2941 2942 2944 2945 2946 2947 2948 2949 2950 2951 2952 2953 2955 2955 2957 2958 2959 2960 2961 2962 2963 2963 2962 2961 2960 2958 2956 2954 2951 2948 2946 2943 2940 2937 2933 2929 2926 2922
2933 2934 2935 2936 2938 2939 2940 2941 2942 2943 2944 2945 2946 2947 2948 2949 2950 2951 2952 2953 2954 2955 2957 2958 2958 2959 2959 2959 2958 2957 2955 2953 2952 2949 2947 2944 2941 2938 2936 2933 2929 2925 2922 2919
2931 2933 2934 2935 2936 2937 2938 2939 2940 2941 2942 2942 2943 2944 2945 2946 2947 2948 2950 2951 2951 2953 2954 2954 2955 2955 2955 2954 2953 2952 2950 2949 2947 2945 2942 2939 2936 2934 2931 2928 2924 2922 2919 2916
2931 2932 2934 2935 2935 2936 2937 2938 2938 2938 2939 2939 2940 2941 2942 2943 2944 2945 2946 2947 2948 2949 2950 2950 2951 2951 2950 2949 2949 2947 2946 2944 2942 2939 2937 2934 2932 2929 2926 2923 2921 2918 2916 2914
2930 2931 2932 2933 2934 2935 2935 2935 2936 2936 2936 2937 2937 2938 2939 2940 2942 2942 2943 2944 2945 2945 2946 2947 2947 2947 2946 2945 2944 2942 2940 2938 2937 2934 2932 2930 2927 2925 2922 2919 2917 2915 2913 2911
2929 2930 2930 2931 2932 2932 2933 2933 2934 2934 2934 2934 2935 2935 2936 2937 2938 2939 2940 2941 2941 2942 2943 2943 2943 2942 2941 2940 2939 2937 2935 2934 2932 2930 2927 2925 2923 2920 2917 2915 2913 2911 2909 2907
2927 2927 2928 2929 2929 2930 2930 2930 2931 2931 2931 2932 2932 2932 2933 2934 2935 2936 2937 2938 2938 2938 2939 2939 2938 2937 2936 2935 2934 2932 2930 2929 2927 2925 2923 2921 2918 2915 2913 2911 2909 2907 2906 2903
Wind_Speed
26 27 25 28 29 30 32 34 32 40 30 34 27 25 22 21 28 25 25 26 27 27 26 28 28 28 27 30 29 24 20 17 11 6 6 9 12 15 17 20 23 28 31 36
27 24 25 29 34 36 35 37 38 40 41 29 30 30 33 31 30 27 25 24 24 23 25 27 26 27 28 28 24 19 16 12 4 5 6 7 9 11 15 18 21 24 26 28
30 19 17 21 38 34 36 34 34 36 36 26 28 30 28 26 27 26 23 23 23 21 24 24 26 28 28 24 19 15 12 5 4 6 4 6 8 11 14 17 20 23 23 24
30 23 15 31 26 29 26 28 26 30 29 33 29 28 26 24 23 22 22 22 22 22 23 24 26 26 22 19 15 12 6 1 6 4 3 6 9 11 14 16 18 21 22 23
25 28 29 39 31 31 28 35 26 26 27 31 26 23 20 18 17 18 19 20 21 21 23 24 22 19 17 14 11 7 4 2 3 2 3 6 9 11 14 16 18 18 20 21
29 23 20 40 19 17 19 31 23 20 28 28 24 20 20 18 19 20 20 21 20 21 21 19 18 15 12 11 10 8 5 2 3 1 3 6 9 12 15 16 18 20 20 19
33 33 32 28 21 19 15 19 14 15 17 15 15 16 13 15 17 19 20 21 21 19 18 17 14 12 11 13 12 12 5 5 3 2 5 8 11 14 15 17 19 20 20 21
22 26 24 24 23 27 22 18 19 15 11 12 12 13 16 17 18 18 18 18 18 18 17 14 12 12 15 17 13 7 7 5 3 4 5 9 11 13 14 16 16 17 18 19
20 19 22 22 20 21 18 17 16 13 13 14 15 17 20 18 17 17 17 16 15 14 12 11 11 14 18 15 8 8 6 4 3 3 5 8 10 11 13 14 15 15 15 16
23 32 36 37 23 21 20 15 17 16 17 17 18 19 17 16 14 14 13 13 12 11 11 12 15 22 16 12 10 8 5 3 0 3 6 8 10 12 14 16 17 18 17 18
30 35 34 20 17 18 18 19 18 18 19 19 17 15 13 11 11 13 14 12 12 12 14 17 21 22 16 11 9 7 4 1 2 5 8 10 11 14 16 18 19 21 22 23
22 24 22 13 17 17 18 20 20 19 17 14 13 11 10 10 12 13 12 11 12 15 18 22 21 17 14 12 9 6 4 3 4 7 10 13 15 17 19 21 22 23 23 24
17 14 17 20 15 14 15 17 16 15 14 12 10 11 11 11 12 12 12 12 15 18 22 24 20 16 14 12 8 6 5 4 5 8 11 13 16 18 20 20 21 22 23 24
16 19 20 17 16 15 14 13 13 13 11 9 11 12 12 11 12 12 13 14 18 20 23 22 18 15 14 11 8 7 5 5 7 10 12 14 16 18 19 20 22 24 25 26
20 19 19 18 17 15 14 13 11 9 8 9 10 12 12 13 13 13 15 17 19 21 22 19 16 15 12 10 8 7 7 7 9 12 13 15 16 17 19 20 22 24 26 27
18 18 18 18 17 15 14 12 10 8 8 9 10 12 13 13 13 14 16 18 20 21 18 16 15 13 11 10 9 8 8 9 11 13 14 16 17 19 20 22 23 24 25 25
15 16 16 16 16 15 13 13 11 10 10 10 11 12 12 12 14 15 17 19 21 20 17 15 13 12 11 11 10 9 10 11 13 14 15 16 18 20 21 23 24 24 25 26
11 11 13 15 15 15 13 13 12 11 11 11 12 12 12 13 14 14 16 20 22 21 20 17 14 13 13 11 10 10 11 12 13 14 15 17 19 21 22 23 24 25 26 27
10 10 10 11 12 13 14 13 12 12 11 11 12 13 13 13 13 14 15 18 19 20 19 18 15 14 13 12 11 11 12 12 13 15 16 18 19 21 22 23 24 25 25 26
11 9 9 9 9 10 11 12 13 12 12 12 12 13 12 12 12 12 14 17 18 18 17 16 16 15 14 11 10 11 12 13 14 16 18 19 20 20 21 22 23 23 23 23
10 9 9 9 9 9 10 11 11 11 11 12 12 12 12 12 12 12 12 13 14 15 16 16 13 11 9 10 11 12 13 14 16 17 18 19 20 20 21 21 21 21 20 20
9 8 8 8 8 9 9 9 10 11 12 12 12 12 12 12 12 12 13 14 14 14 13 12 11 8 10 11 12 13 14 15 16 17 18 18 19 19 20 19 19 18 18 16
8 7 7 8 8 9 9 9 10 11 11 12 12 13 13 13 13 12 12 13 13 13 13 10 8 10 11 12 12 14 15 16 17 17 18 18 18 18 19 18 17 16 14 12
8 7 6 6 6 7 8 9 9 10 11 12 12 13 14 13 13 14 14 13 13 13 10 9 11 12 12 12 14 15 15 16 17 17 17 17 18 18 17 16 15 12 11 11
6 6 7 7 7 8 8 8 8 9 9 11 12 13 13 14 15 15 14 13 13 11 10 11 11 12 12 13 14 15 16 17 17 17 17 17 17 16 15 14 12 10 10 12
7 7 8 9 9 9 9 10 10 11 11 11 12 12 13 13 13 13 13 13 11 11 11 11 12 12 13 14 15 16 16 17 17 17 17 17 16 15 14 12 10 10 11 13
8 9 9 10 10 10 11 11 11 11 12 12 13 13 13 13 13 13 12 12 11 12 12 12 13 13 14 15 16 17 17 17 17 17 17 16 15 14 12 11 10 11 12 14
Wind_Direction
264 266 268 270 271 267 263 261 256 270 271 276 278 274 266 259 280 279 278 273 271 267 270 270 277 286 291 297 305 307 310 307 301 315 354 24 20 22 30 31 30 30 27 24
268 267 269 270 267 262 261 261 260 264 269 280 276 271 272 276 275 274 270 268 265 264 264 271 277 284 293 301 303 303 306 295 285 331 342 357 13 20 26 26 26 24 21 22
273 276 270 269 261 267 265 261 255 258 269 278 270 272 272 269 271 267 261 261 262 260 265 270 277 287 295 298 298 299 289 258 322 310 337 23 29 29 30 30 29 27 20 18
263 272 251 269 265 264 260 266 263 258 265 265 271 273 272 269 262 262 261 260 259 255 261 269 281 289 291 289 288 286 249 187 301 312 6 37 38 35 34 31 30 26 20 18
250 258 263 271 267 275 278 279 266 259 267 274 271 268 263 258 256 254 254 251 253 255 264 273 279 279 275 273 272 228 192 261 290 349 348 31 35 33 33 31 28 23 19 16
241 246 260 267 258 275 271 265 273 267 267 267 263 256 258 259 254 251 252 254 257 262 266 268 271 266 257 256 210 186 201 247 237 235 42 35 31 30 29 24 21 18 13 11
239 242 257 259 257 264 239 272 287 270 266 253 242 242 258 264 263 257 252 251 254 256 261 264 258 244 236 203 187 199 177 225 189 82 37 33 29 23 20 16 14 10 4 4
241 241 247 257 255 239 255 252 278 276 246 236 250 261 276 277 267 254 245 245 249 256 257 248 234 220 204 196 183 163 211 184 102 46 23 27 24 16 11 9 6 4 1 358
244 256 262 263 260 266 251 248 264 256 251 262 272 277 282 275 262 247 242 245 243 244 233 220 208 200 179 157 158 197 192 129 78 25 14 17 13 5 1 359 356 355 357 357
255 264 258 255 254 230 246 251 258 261 267 272 278 280 276 270 255 237 226 220 226 219 206 196 180 170 155 171 187 190 175 144 33 358 357 2 358 354 352 350 349 349 349 350
259 263 259 261 251 282 269 260 263 266 272 276 275 272 265 249 226 215 213 221 208 195 188 181 178 166 165 179 187 191 182 207 319 346 348 349 345 346 347 346 345 348 348 350
265 273 270 274 274 267 262 259 263 269 267 267 265 249 226 221 210 210 210 207 204 188 179 174 170 168 177 194 200 199 214 264 330 337 342 340 341 344 344 343 344 345 346 345
269 262 266 272 265 265 259 257 256 259 261 256 242 225 213 215 211 206 208 203 194 181 175 177 173 183 191 199 204 217 241 285 321 332 334 331 335 337 337 336 339 339 339 340
279 268 262 258 260 258 250 251 254 256 252 238 223 219 217 214 210 206 203 194 187 179 180 179 184 195 203 202 213 234 259 296 316 322 324 327 330 332 335 335 335 337 337 337
268 261 251 247 246 245 244 247 247 246 237 227 219 213 213 210 209 204 199 192 188 184 184 186 196 202 208 214 227 250 274 295 308 314 319 323 325 331 333 332 335 335 335 336
256 248 238 236 237 236 239 240 240 237 229 218 210 210 206 206 206 204 197 192 191 189 187 198 204 209 216 227 241 258 278 294 304 312 318 323 329 331 330 332 332 332 334 334
250 239 232 234 232 234 232 229 225 224 220 215 212 209 208 206 204 202 201 200 198 189 194 203 211 221 229 238 252 270 285 296 305 311 318 324 326 327 328 330 332 333 333 335
235 226 223 222 222 228 230 225 223 222 218 214 215 212 207 203 203 206 208 210 203 193 196 203 215 227 236 245 259 271 285 295 304 312 317 321 325 327 328 330 332 334 337 339
221 220 218 219 225 224 219 218 221 221 219 216 215 213 210 209 207 209 214 220 215 208 204 206 213 228 238 249 259 274 286 296 306 312 318 322 324 326 328 330 333 336 338 339
219 221 223 222 219 218 219 221 221 220 221 223 223 220 217 217 219 219 220 225 224 220 218 219 225 230 238 252 269 283 291 302 310 316 318 321 325 327 329 331 334 335 338 340
221 220 217 215 213 214 219 217 219 224 227 228 225 223 222 224 226 229 232 237 234 230 229 231 232 234 248 264 276 287 298 306 312 315 318 321 323 325 327 329 331 335 338 342
209 210 210 209 209 212 218 223 227 229 232 234 235 235 234 234 235 237 239 237 235 232 230 226 229 241 256 268 282 292 300 307 310 313 316 317 321 324 326 328 332 336 340 344
188 194 200 206 210 215 222 228 232 234 235 236 236 234 232 231 231 233 236 231 229 228 230 231 237 250 265 279 288 295 302 305 308 311 314 318 320 323 326 328 332 334 338 347
177 190 204 212 220 225 231 238 241 242 240 237 235 234 232 232 235 237 236 230 225 228 229 236 249 265 277 285 292 296 300 304 308 311 313 315 319 321 323 325 327 330 337 341
204 217 225 228 235 239 241 245 247 248 244 239 236 235 234 234 232 228 229 229 230 233 239 251 265 272 278 284 291 297 302 305 306 308 310 313 315 317 319 319 320 326 327 331
219 223 224 227 232 235 241 246 249 249 246 242 239 236 235 235 235 234 236 236 238 243 252 259 265 272 281 290 294 297 299 301 304 306 307 309 311 314 314 313 316 314 317 325
223 230 232 232 233 237 240 243 246 248 247 245 241 238 236 235 235 239 241 242 246 251 257 263 270 278 285 291 294 297 298 299 301 302 303 306 311 310 309 307 305 304 312 320